Location: Calberlah
(52.4230°N, 10.6240°E)
Time: 17:22:46
(UTC+00:00)

Cosmos 1805 Rocket - Pass Details

Date: 19 May 2025
Orbit: 600 x 623 km, 82.5° (Epoch: 16 June)

Event Time Altitude Azimuth Distance (km) Brightness Sun altitude
Rises 23:01:20 0° 345° (NNW) 2,919 8.6 -17.5°
Reaches altitude 10° 23:03:37 10° 341° (NNW) 2,007 7.3 -17.6°
Maximum altitude 23:07:56 52° 265° (W) 777 4.0 -17.6°
Enters shadow 23:09:38 32° 207° (SSW) 1,065 4.3 -17.6°
